Weather History for Willimantic, CT

Change the Weather History Date:

Thursday, October 18, 2012

  Actual Average Record
Temperature  
Mean Temperature 50 °F -  
Max Temperature 66 °F 60 °F 81 °F (1968)
Min Temperature 35 °F 36 °F 20 °F (1978)
Degree Days  
Heating Degree Days 14    
Moisture  
Dew Point 40 °F    
Average Humidity 79    
Maximum Humidity 93    
Minimum Humidity 47    
Precipitation  
Precipitation 0.00 in - - ()
Sea Level Pressure  
Sea Level Pressure 30.07 in    
Wind  
Wind Speed 1 mph (South)    
Max Wind Speed 10 mph    
Max Gust Speed -    
Visibility 8 miles    
Events Fog    
Averages and records for this station are not official NWS values.
T = Trace of Precipitation, MM = Missing Value Source: NWS Daily Summary

Daily Weather History Graph

Daily Weather History Graph

Search for Another Location

Airport:

Trip Planner

Search our weather history database for the weather conditions in past years. The results will help you decide how hot, cold, wet, or windy it might be!

Date:

Astronomy

Oct. 18, 2012 Rise Set
Actual Time 7:04 AM EDT 6:02 PM EDT
Civil Twilight 6:36 AM EDT 6:30 PM EDT
Nautical Twilight 6:04 AM EDT 7:02 PM EDT
Astronomical Twilight 5:32 AM EDT 7:34 PM EDT
Moon 10:46 AM EDT 8:30 PM EDT
Length of Visible Light 11h 53m
Length of Day
10h 57m
Waxing Crescent, 14% of the Moon is Illuminated
Oct 18
Waxing Crescent
Oct 21
First Quarter
Oct 29
Full
Nov 6
Last Quarter
Nov 13
New

Hourly Weather History & Observations

Time (EDT) Temp. Windchill Dew Point Humidity Pressure Visibility Wind Dir Wind Speed Gust Speed Precip Events Conditions
12:52 AM 43.0 °F - 37.9 °F 82% 30.02 in 10.0 mi Calm Calm - N/A   Clear
1:52 AM 41.0 °F - 37.0 °F 86% 30.03 in 10.0 mi Calm Calm - N/A   Clear
2:52 AM 39.9 °F 37.8 °F 36.0 °F 86% 30.03 in 10.0 mi NNE 3.5 mph - N/A   Clear
3:52 AM 39.0 °F - 35.1 °F 86% 30.03 in 10.0 mi Calm Calm - N/A   Clear
4:52 AM 37.9 °F - 34.0 °F 86% 30.04 in 10.0 mi Calm Calm - N/A   Clear
5:05 AM 37.4 °F - 33.8 °F 87% 30.04 in 10.0 mi Calm Calm - N/A   Scattered Clouds
5:26 AM 37.4 °F - 33.8 °F 87% 30.05 in 10.0 mi Calm Calm - N/A   Mostly Cloudy
5:36 AM 37.4 °F - 33.8 °F 87% 30.05 in 10.0 mi Calm Calm - N/A   Scattered Clouds
5:52 AM 37.0 °F - 33.1 °F 86% 30.06 in 10.0 mi Calm Calm - N/A   Clear
6:52 AM 36.0 °F - 32.0 °F 86% 30.07 in 10.0 mi Calm Calm - N/A   Clear
7:10 AM 35.6 °F - 33.8 °F 93% 30.07 in 10.0 mi Calm Calm - N/A   Scattered Clouds
7:15 AM 35.6 °F - 33.8 °F 93% 30.07 in 2.0 mi Calm Calm - N/A   Mostly Cloudy
7:17 AM 35.6 °F - 33.8 °F 93% 30.07 in 0.8 mi Calm Calm - N/A   Mist
7:26 AM 35.6 °F - 33.8 °F 93% 30.07 in 0.2 mi Calm Calm - N/A Fog Fog
7:42 AM 35.6 °F - 33.8 °F 93% 30.07 in 1.0 mi Calm Calm - N/A   Overcast
7:45 AM 37.4 °F - 33.8 °F 87% 30.07 in 3.0 mi Calm Calm - N/A   Overcast
7:50 AM 37.4 °F - 33.8 °F 87% 30.08 in 1.5 mi Calm Calm - N/A   Overcast
7:52 AM 37.0 °F - 34.0 °F 89% 30.09 in 0.5 mi Calm Calm - N/A Fog Fog
7:59 AM 37.4 °F - 35.6 °F 93% 30.08 in 0.2 mi Calm Calm - N/A Fog Fog
8:06 AM 37.4 °F - 35.6 °F 93% 30.08 in 0.2 mi Calm Calm - N/A Fog Fog
8:20 AM 37.4 °F - 35.6 °F 93% 30.08 in 1.0 mi Calm Calm - N/A   Mist
8:23 AM 39.2 °F - 35.6 °F 87% 30.08 in 3.0 mi Calm Calm - N/A   Mostly Cloudy
8:34 AM 39.2 °F - 35.6 °F 87% 30.08 in 9.0 mi Calm Calm - N/A   Scattered Clouds
8:52 AM 41.0 °F - 37.9 °F 89% 30.09 in 10.0 mi Calm Calm - N/A   Clear
9:52 AM 48.9 °F - 42.1 °F 77% 30.10 in 10.0 mi Calm Calm - N/A   Clear
10:18 AM 51.8 °F - 42.8 °F 71% 30.09 in 10.0 mi Calm Calm - N/A   Mostly Cloudy
10:52 AM 55.9 °F - 45.0 °F 67% 30.09 in 10.0 mi Calm Calm - N/A   Overcast
11:52 AM 61.0 °F - 46.0 °F 58% 30.09 in 10.0 mi South 8.1 mph - N/A   Mostly Cloudy
12:09 PM 62.6 °F - 46.4 °F 55% 30.09 in 10.0 mi South 9.2 mph - N/A   Mostly Cloudy
12:52 PM 63.0 °F - 45.0 °F 52% 30.07 in 10.0 mi SSE 6.9 mph - N/A   Mostly Cloudy
1:52 PM 64.9 °F - 44.1 °F 47% 30.06 in 10.0 mi South 10.4 mph - N/A   Clear
2:52 PM 66.0 °F - 45.0 °F 47% 30.04 in 10.0 mi South 8.1 mph - N/A   Clear
3:52 PM 64.9 °F - 44.1 °F 47% 30.05 in 10.0 mi South 9.2 mph - N/A   Clear
4:52 PM 64.0 °F - 44.1 °F 48% 30.04 in 10.0 mi South 8.1 mph - N/A   Clear
5:52 PM 60.1 °F - 44.1 °F 55% 30.04 in 10.0 mi South 8.1 mph - N/A   Clear
6:52 PM 57.0 °F - 46.0 °F 67% 30.06 in 10.0 mi Calm Calm - N/A   Scattered Clouds
7:52 PM 53.1 °F - 46.0 °F 77% 30.07 in 10.0 mi Calm Calm - N/A   Mostly Cloudy
8:42 PM 53.6 °F - 46.4 °F 77% 30.10 in 10.0 mi Calm Calm - N/A   Overcast
8:52 PM 53.1 °F - 46.9 °F 80% 30.10 in 10.0 mi Calm Calm - N/A   Mostly Cloudy
9:52 PM 50.0 °F - 46.0 °F 86% 30.08 in 10.0 mi Calm Calm - N/A   Clear
10:48 PM 51.8 °F - 46.4 °F 82% 30.08 in 10.0 mi Calm Calm - N/A   Mostly Cloudy
10:52 PM 51.1 °F - 46.9 °F 86% 30.08 in 10.0 mi Calm Calm - N/A   Mostly Cloudy
11:11 PM 51.8 °F - 48.2 °F 88% 30.06 in 10.0 mi Calm Calm - N/A   Overcast
11:52 PM 55.0 °F - 51.1 °F 86% 30.05 in 10.0 mi Calm Calm - N/A   Overcast